Managua, Nicaragua

2:55 PM CST on December 10, 2016 (GMT -0600)
Augusto Cesar Sandino

Weather History for MNMG - August, 2013

Change the Weather History Date:

Tuesday, August 6, 2013

  Actual Average Record
Temperature  
Mean Temperature 84 °F -  
Max Temperature 91 °F 89 °F 95 °F (1998)
Min Temperature 77 °F 71 °F 73 °F (1996)
Cooling Degree Days 19    
Growing Degree Days 34 (Base 50)    
Moisture  
Dew Point 72 °F    
Average Humidity 70    
Maximum Humidity 89    
Minimum Humidity 49    
Precipitation  
Precipitation 0.00 in - - ()
Sea Level Pressure  
Sea Level Pressure 29.85 in    
Wind  
Wind Speed 6 mph ()    
Max Wind Speed 14 mph    
Max Gust Speed -    
Visibility 5.6 miles    
Events      
Averages and records for this station are not official NWS values.
T = Trace of Precipitation, MM = Missing Value Source: Averaged Metar Reports

Daily Weather History Graph

Daily Weather History Graph

Search for Another Location

Airport or City:

Trip Planner

Search our weather history database for the weather conditions in past years. The results will help you decide how hot, cold, wet, or windy it might be!

Date:

Astronomy

Aug. 06, 2013 Rise Set
Actual Time 5:32 AM CST 6:08 PM CST
Civil Twilight 5:10 AM CST 6:30 PM CST
Nautical Twilight 4:44 AM CST 6:56 PM CST
Astronomical Twilight 4:17 AM CST 7:23 PM CST
Moon 5:13 AM CST (8/6) 5:57 PM CST (8/6)
Length of Visible Light 13h 20m
Length of Day
12h 36m
Waning Crescent, 0% of the Moon is Illuminated
Aug 6
Waning Crescent
Aug 6
New
Aug 14
First Quarter
Aug 20
Full
Aug 28
Last Quarter

Hourly Weather History & Observations

Time (CST) Temp. Heat Index Dew Point Humidity Pressure Visibility Wind Dir Wind Speed Gust Speed Precip Events Conditions
12:00 AM 77.0 °F - 73.4 °F 89% 29.89 in 6.2 mi SE 4.6 mph - N/A   Scattered Clouds
1:00 AM 77.0 °F - 73.4 °F 89% 29.86 in 6.2 mi ESE 6.9 mph - N/A   Scattered Clouds
2:00 AM 77.0 °F - 73.4 °F 89% 29.86 in 5.6 mi Calm Calm - N/A   Scattered Clouds
3:00 AM 78.8 °F - 71.6 °F 78% 29.83 in 5.6 mi East 9.2 mph - N/A   Scattered Clouds
4:00 AM 77.0 °F - 71.6 °F 83% 29.83 in 5.6 mi ESE 6.9 mph - N/A   Scattered Clouds
5:00 AM 77.0 °F - 71.6 °F 83% 29.83 in 5.6 mi ESE 9.2 mph - N/A   Partly Cloudy
6:00 AM 77.0 °F - 71.6 °F 83% 29.86 in 5.0 mi East 9.2 mph - N/A   Scattered Clouds
7:00 AM 78.8 °F - 71.6 °F 78% 29.86 in 5.6 mi ESE 6.9 mph - N/A   Mostly Cloudy
8:00 AM 80.6 °F 85.4 °F 73.4 °F 79% 29.86 in - North - - N/A   Scattered Clouds
8:45 AM 80.6 °F 85.4 °F 73.4 °F 79% 29.86 in - North - - N/A   Scattered Clouds
9:00 AM 82.4 °F 88.2 °F 73.4 °F 74% 29.86 in - North - - N/A   Scattered Clouds
9:45 AM 82.4 °F 88.2 °F 73.4 °F 74% 29.86 in - North - - N/A   Scattered Clouds
10:00 AM 86.0 °F 93.4 °F 73.4 °F 66% 29.86 in - North - - N/A   Scattered Clouds
10:45 AM 86.0 °F 93.4 °F 73.4 °F 66% 29.86 in - North - - N/A   Scattered Clouds
11:00 AM 87.8 °F 93.8 °F 71.6 °F 58% 29.86 in 5.6 mi East 13.8 mph - N/A   Scattered Clouds
12:00 PM 89.6 °F 94.7 °F 69.8 °F 52% 29.86 in 5.6 mi East 9.2 mph - N/A   Scattered Clouds
1:00 PM 91.4 °F 98.4 °F 71.6 °F 52% 29.83 in 5.6 mi East 11.5 mph - N/A   Scattered Clouds
2:00 PM 91.4 °F 96.8 °F 69.8 °F 49% 29.83 in 5.6 mi East 11.5 mph - N/A   Scattered Clouds
3:00 PM 89.6 °F 96.2 °F 71.6 °F 55% 29.80 in 5.6 mi East 6.9 mph - N/A   Scattered Clouds
4:00 PM 89.6 °F 96.2 °F 71.6 °F 55% 29.80 in 5.6 mi East 11.5 mph - N/A   Scattered Clouds
5:00 PM 89.6 °F 94.7 °F 69.8 °F 52% 29.80 in 5.6 mi East 6.9 mph - N/A   Mostly Cloudy
6:00 PM 86.0 °F 90.4 °F 69.8 °F 58% 29.83 in 5.6 mi East 6.9 mph - N/A   Scattered Clouds
7:00 PM 84.2 °F 88.4 °F 69.8 °F 62% 29.83 in 5.6 mi East 4.6 mph - N/A   Scattered Clouds
8:00 PM 80.6 °F 83.9 °F 69.8 °F 70% 29.86 in 5.6 mi East 4.6 mph - N/A   Scattered Clouds
9:00 PM 80.6 °F 84.6 °F 71.6 °F 74% 29.86 in 5.6 mi Calm Calm - N/A   Scattered Clouds
10:00 PM 78.8 °F - 69.8 °F 74% 29.89 in 5.6 mi Calm Calm - N/A   Scattered Clouds
11:00 PM 78.8 °F - 69.8 °F 74% 29.89 in 5.6 mi Calm Calm - N/A   Scattered Clouds